Vorticity
nan nan nan nan nan nan nan nan nan nan nan nan nan nan nan nan nan nan nan nan nan nan nan nan nan nan nan nan nan nan nan nan nan nan nan nan nan nan nan nan nan nan nan nan nan nan nan nan nan nan nan nan nan nan nan nan nan nan nan nan nan nan nan nan nan nan nan nan nan
nan 10 10 11 12 12 9 8 8 8 9 9 9 9 9 9 9 9 9 8 8 9 9 8 6 5 4 6 9 9 8 7 7 9 9 9 8 8 9 9 8 8 9 11 12 12 8 9 13 13 11 8 7 8 9 8 7 6 6 9 13 13 12 12 11 11 12 14 nan
nan 10 10 10 11 12 10 9 8 8 9 10 9 9 10 10 9 8 8 8 9 9 9 8 6 6 6 8 9 8 8 7 8 9 9 8 7 7 8 8 7 8 10 11 11 10 8 10 13 12 10 7 6 8 9 8 7 7 8 13 16 13 11 9 9 10 11 11 nan
nan 10 10 8 10 12 11 8 8 9 10 10 11 10 10 10 9 8 9 9 9 9 9 8 7 7 6 7 8 8 7 7 9 10 10 8 7 7 8 8 9 9 10 9 9 8 9 13 15 12 9 7 9 9 8 6 7 10 12 14 13 9 8 7 8 10 10 9 nan
nan 9 9 8 9 11 11 8 8 9 10 10 10 10 10 10 9 9 8 8 8 8 8 8 8 7 7 7 8 8 8 8 9 11 9 8 8 8 8 9 10 10 9 8 8 9 10 16 17 12 9 9 10 8 5 5 8 12 13 11 8 7 7 8 10 10 9 7 nan
nan 9 9 8 9 10 10 8 8 9 9 9 9 10 10 9 8 8 8 8 8 8 8 9 8 7 8 9 9 9 9 10 10 9 8 9 8 8 8 9 10 10 9 8 8 9 12 16 16 11 9 10 8 5 4 7 11 11 10 8 8 8 8 9 10 8 5 2 nan
nan 8 9 9 9 10 10 9 8 8 9 8 7 8 10 9 8 9 10 10 9 9 9 9 7 8 8 9 9 9 9 9 9 8 9 9 8 8 9 9 9 9 9 8 9 10 13 16 14 10 8 9 8 6 5 8 9 8 7 8 10 9 8 9 9 6 3 1 nan
nan 8 8 8 8 9 10 9 8 8 9 8 6 7 9 9 9 10 11 11 10 10 10 8 6 7 8 9 9 8 8 9 9 9 9 8 8 9 9 9 9 9 9 9 9 10 13 16 12 9 8 9 7 4 3 6 7 7 8 11 11 9 7 7 6 4 3 4 nan
nan 8 8 9 9 9 10 9 8 7 7 8 8 8 8 9 9 11 12 11 10 10 9 7 6 8 9 9 9 9 9 9 9 8 8 8 8 9 10 9 8 9 9 9 8 10 14 15 10 8 8 7 5 3 3 5 7 8 12 14 10 7 5 5 4 5 6 8 nan
nan 8 8 9 9 10 11 10 8 7 7 8 9 9 8 9 10 11 11 9 9 9 9 7 7 8 10 10 9 9 9 9 8 8 8 8 8 8 10 9 7 8 9 9 9 10 13 12 8 6 7 5 4 5 6 7 7 10 14 12 5 4 5 6 7 9 10 9 nan
nan 9 8 8 9 10 11 10 8 7 7 8 9 9 8 9 10 10 10 9 9 8 9 8 8 9 10 10 8 9 9 9 8 8 8 8 8 8 9 8 7 8 8 9 10 11 11 8 5 5 7 7 8 9 8 7 8 10 12 8 4 5 7 8 10 12 11 9 nan
nan 9 8 8 9 10 11 10 9 7 7 8 9 9 9 9 9 9 9 9 9 10 10 9 9 10 10 9 8 8 9 9 9 9 8 8 8 8 9 8 8 8 9 10 11 11 8 6 5 5 7 10 12 8 5 5 9 9 9 7 7 7 7 8 11 12 10 7 nan
nan 9 8 9 10 11 11 10 9 7 7 8 9 9 9 8 8 9 9 9 10 10 10 9 10 10 9 8 8 8 8 9 9 9 8 8 8 8 9 9 8 9 10 11 10 9 7 6 5 6 7 11 10 7 5 7 9 9 8 7 7 7 7 8 10 10 8 7 nan
nan 9 9 9 10 11 10 10 10 7 6 7 9 9 9 8 8 9 9 9 9 10 10 10 10 9 8 7 8 8 9 9 9 9 9 8 8 8 9 9 8 9 10 10 8 7 7 7 7 7 8 9 8 8 8 10 9 9 8 7 7 7 8 9 9 9 8 8 nan
nan 9 9 10 10 10 10 10 10 7 6 8 9 9 10 9 8 9 9 9 10 10 9 9 9 8 8 8 9 10 10 10 9 9 9 9 9 9 9 8 8 9 9 8 8 8 8 8 8 9 9 9 9 10 11 11 9 8 7 7 7 8 8 8 9 9 9 9 nan
nan 9 9 9 9 10 10 10 9 7 6 7 8 9 10 10 9 8 9 10 11 10 8 8 10 10 8 8 10 11 12 11 9 9 9 9 9 9 9 8 8 8 8 8 9 9 9 9 9 8 9 10 10 11 11 10 9 8 8 8 8 8 8 8 9 9 9 9 nan
nan 9 9 8 8 9 10 10 9 7 7 7 9 9 10 10 9 8 8 10 10 8 7 8 10 9 9 9 10 11 11 10 9 8 8 8 8 9 9 8 8 8 8 9 8 8 8 9 9 9 10 11 11 11 11 10 9 8 8 9 9 9 8 9 10 10 9 9 nan
nan 9 8 7 8 8 8 9 9 8 8 9 10 10 10 9 9 9 9 9 8 7 7 9 10 9 8 9 10 10 9 9 8 8 8 8 9 9 9 8 9 9 9 9 8 7 7 8 9 10 10 11 11 10 10 10 9 8 8 9 9 10 9 10 10 10 9 8 nan
nan 8 7 7 7 8 8 9 9 10 10 10 9 9 9 9 9 9 9 8 7 7 8 9 10 9 8 9 9 9 10 9 7 8 9 9 9 9 9 9 9 10 10 9 8 8 8 8 9 9 10 10 10 9 9 9 9 8 8 10 10 10 10 10 9 9 9 8 nan
nan 8 8 7 7 8 9 9 10 10 10 9 8 9 9 10 10 9 9 8 8 9 9 9 9 8 8 9 9 10 11 9 7 9 10 10 9 9 9 9 10 11 11 10 8 8 8 8 8 9 9 9 9 9 9 9 9 8 10 11 10 9 9 9 9 9 9 9 nan
nan 8 8 8 8 9 10 10 9 9 9 8 9 10 10 10 10 9 9 9 9 10 9 9 9 8 8 8 9 10 11 10 8 9 10 10 10 10 10 10 10 11 10 9 8 7 8 8 8 9 9 9 9 9 9 9 9 9 10 10 8 8 8 9 9 9 9 9 nan
nan 8 8 8 9 9 9 9 9 9 9 10 10 10 10 10 10 10 10 11 11 10 10 10 9 8 8 8 9 10 11 10 9 9 9 10 10 10 10 10 9 9 9 9 9 8 8 9 9 10 10 10 8 9 9 9 9 9 9 8 8 8 9 10 10 10 9 8 nan
nan 8 8 8 8 8 9 10 10 10 10 10 10 10 10 10 11 11 12 11 10 10 10 10 9 8 9 9 8 9 9 9 9 9 9 10 9 9 10 10 9 9 11 11 8 7 7 9 10 11 11 10 8 9 9 10 10 10 8 8 9 10 10 10 10 10 9 8 nan
nan 9 9 8 8 9 10 10 10 10 10 10 10 10 10 11 11 11 11 10 9 9 10 9 9 9 10 10 9 9 8 8 8 9 10 10 9 9 11 11 11 12 13 7 -3 -4 2 8 9 9 10 10 10 10 10 10 10 9 8 9 10 10 11 10 10 9 8 8 nan
nan 9 9 9 9 10 10 9 9 10 10 11 11 11 11 11 11 10 10 9 9 9 9 10 10 10 10 10 9 9 9 8 8 8 9 9 9 10 12 12 12 12 9 -6 -16 -9 1 8 9 9 9 10 10 10 10 10 9 9 9 9 10 10 10 9 9 9 8 8 nan
nan 9 9 10 10 10 9 9 10 10 11 11 10 11 11 11 10 9 8 8 9 10 11 11 10 9 10 10 8 8 9 9 8 8 8 8 8 10 12 12 12 10 1 -14 -14 -4 3 7 8 11 15 13 10 10 11 10 9 9 10 10 11 10 9 8 8 8 8 8 nan
nan 9 10 10 10 9 10 10 10 9 9 9 10 10 11 10 9 8 8 9 10 12 13 12 10 9 11 10 7 7 9 9 8 8 9 8 8 10 11 12 11 5 -8 -16 -7 2 7 7 7 11 17 17 13 12 11 9 9 11 12 12 10 9 8 8 8 8 8 8 nan
nan 9 9 9 9 10 10 10 9 8 9 10 10 11 10 9 9 9 9 9 11 13 13 12 11 11 11 7 5 7 8 9 10 9 9 8 9 10 10 10 6 -2 -12 -11 -0 6 8 7 7 8 13 19 21 15 13 11 11 12 12 11 10 9 9 9 9 8 8 9 nan
nan 9 9 9 9 10 9 9 8 9 10 10 10 10 10 10 9 9 9 9 11 13 12 11 10 9 6 4 6 8 9 10 10 9 8 7 8 9 9 7 4 -2 -8 -4 5 7 7 7 7 7 9 19 25 19 14 12 11 11 11 10 8 8 8 8 8 7 8 10 nan
nan 9 8 8 9 9 9 8 9 9 10 10 9 9 10 9 9 9 9 11 13 12 10 9 7 5 4 6 8 8 9 9 9 8 7 6 7 8 8 9 6 1 -4 -2 4 6 7 7 7 8 8 17 25 23 16 10 9 9 9 8 6 6 7 8 7 8 8 7 nan
nan 9 9 9 9 9 9 9 9 10 10 9 9 9 9 9 9 11 11 12 11 9 9 9 6 5 7 9 8 8 8 8 8 8 7 6 7 9 9 9 7 3 -4 -3 3 5 7 7 8 9 8 17 27 24 16 10 9 9 8 6 5 6 9 10 9 8 7 6 nan
nan 9 9 9 9 10 10 9 9 9 9 9 10 10 10 10 11 11 11 10 9 10 11 8 6 7 8 9 9 8 8 8 7 7 6 7 8 9 9 10 9 3 -5 -5 2 5 7 8 9 9 8 18 27 24 17 12 11 11 9 7 8 9 10 8 7 6 7 9 nan
nan 9 9 9 9 10 10 10 10 9 10 10 10 10 10 11 11 10 11 11 11 11 10 7 7 9 10 10 10 9 9 8 7 7 7 8 9 9 10 13 11 0 -8 -5 2 5 8 9 9 9 8 21 32 27 20 14 13 11 9 9 10 10 10 8 7 7 8 11 nan
nan 9 9 9 10 10 10 10 9 9 10 10 10 10 10 10 10 11 12 12 13 12 10 9 10 11 12 11 10 8 8 8 8 8 9 9 9 9 10 13 6 -7 -11 -4 3 6 8 9 9 9 12 28 36 27 17 13 11 9 8 8 9 9 9 10 9 10 10 11 nan
nan 9 9 10 10 10 9 9 9 9 9 9 9 10 11 10 10 10 11 11 12 11 10 9 10 10 10 11 10 7 7 8 8 8 8 8 8 9 10 10 1 -8 -8 -1 5 6 7 8 8 11 19 34 35 23 14 12 11 9 8 9 9 9 9 10 11 11 11 11 nan
nan 9 9 9 9 9 9 9 9 9 8 9 9 10 10 10 11 11 10 11 12 10 9 9 10 10 9 11 10 9 9 8 8 8 8 8 8 9 10 8 3 -2 -2 2 4 5 6 7 8 13 26 36 29 17 12 13 12 10 10 11 11 10 11 12 12 11 10 9 nan
nan 9 8 9 9 9 9 9 9 8 8 10 11 10 9 11 12 12 10 11 10 9 9 10 9 10 10 9 8 8 7 7 7 7 8 8 10 10 9 9 6 3 1 1 2 4 5 7 9 16 28 32 21 15 13 13 11 10 10 12 12 12 13 14 13 12 10 6 nan
nan 9 9 9 9 9 9 9 8 8 9 11 11 10 10 11 11 10 9 10 10 8 9 10 10 9 8 7 7 7 8 8 7 8 8 10 10 8 7 8 8 6 1 -2 -0 3 6 7 9 15 26 26 19 16 15 12 9 9 10 12 13 12 13 13 12 11 8 3 nan
nan 10 9 9 9 9 9 9 9 10 11 11 9 8 10 11 10 8 8 10 10 8 9 8 8 8 7 7 9 9 9 9 9 9 10 9 6 4 5 9 9 6 -0 -3 -0 4 6 8 9 13 24 28 22 17 14 10 9 9 10 12 12 12 12 11 10 8 7 4 nan
nan 10 10 9 9 9 9 9 10 11 10 9 8 10 11 11 9 8 9 10 9 9 9 8 7 7 7 8 10 10 10 10 11 10 9 8 5 4 9 14 11 7 3 2 2 4 5 7 9 14 26 29 21 16 12 10 9 10 10 11 10 11 11 10 10 9 10 11 nan
nan nan nan nan nan nan nan nan nan nan nan nan nan nan nan nan nan nan nan nan nan nan nan nan nan nan nan nan nan nan nan nan nan nan nan nan nan nan nan nan nan nan nan nan nan nan nan nan nan nan nan nan nan nan nan nan nan nan nan nan nan nan nan nan nan nan nan nan nan
CAPE
nan nan nan nan nan nan nan nan nan nan nan nan nan nan nan nan nan nan nan nan nan nan nan nan nan nan nan nan nan nan nan nan nan nan nan nan nan nan nan nan nan nan nan nan nan nan nan nan nan nan nan nan nan nan nan nan nan nan nan nan nan nan nan nan nan nan nan nan nan
nan nan nan nan nan nan nan nan nan nan nan nan nan nan nan nan nan nan nan nan nan nan nan nan nan nan nan nan nan nan nan nan nan nan nan nan nan nan nan nan nan nan nan nan nan nan nan nan nan nan nan nan nan nan nan nan nan nan nan nan nan nan nan nan nan nan nan nan nan
nan nan nan nan nan nan nan nan nan nan nan nan nan nan nan nan nan nan nan nan nan nan nan nan nan nan nan nan nan nan nan nan nan nan nan nan nan nan nan nan nan nan nan nan nan nan nan nan nan nan nan nan nan nan nan nan nan nan nan nan nan nan nan nan nan nan nan nan nan
nan nan nan nan nan nan nan nan nan nan nan nan nan nan nan nan nan nan nan nan nan nan nan nan nan nan nan nan nan nan nan nan nan nan nan nan nan nan nan nan nan nan nan nan nan nan nan nan nan nan nan nan nan nan nan nan nan nan nan nan nan nan nan nan nan nan nan nan nan
nan nan nan nan nan nan nan nan nan nan nan nan nan nan nan nan nan nan nan nan nan nan nan nan nan nan nan nan nan nan nan nan nan nan nan nan nan nan nan nan nan nan nan nan nan nan nan nan nan nan nan nan nan nan nan nan nan nan nan nan nan nan nan nan nan nan nan nan nan
nan nan nan nan nan nan nan nan nan nan nan nan nan nan nan nan nan nan nan nan nan nan nan nan nan nan nan nan nan nan nan nan nan nan nan nan nan nan nan nan nan nan nan nan nan nan nan nan nan nan nan nan nan nan nan nan nan nan nan nan nan nan nan nan nan nan nan nan nan
nan nan nan nan nan nan nan nan nan nan nan nan nan nan nan nan nan nan nan nan nan nan nan nan nan nan nan nan nan nan nan nan nan nan nan nan nan nan nan nan nan nan nan nan nan nan nan nan nan nan nan nan nan nan nan nan nan nan nan nan nan nan nan nan nan nan nan nan nan
nan nan nan nan nan nan nan nan nan nan nan nan nan nan nan nan nan nan nan nan nan nan nan nan nan nan nan nan nan nan nan nan nan nan nan nan nan nan nan nan nan nan nan nan nan nan nan nan nan nan nan nan nan nan nan nan nan nan nan nan nan nan nan nan nan nan nan nan nan
nan nan nan nan nan nan nan nan nan nan nan nan nan nan nan nan nan nan nan nan nan nan nan nan nan nan nan nan nan nan nan nan nan nan nan nan nan nan nan nan nan nan nan nan nan nan nan nan nan nan nan nan nan nan nan nan nan nan nan nan nan nan nan nan nan nan nan nan nan
nan nan nan nan nan nan nan nan nan nan nan nan nan nan nan nan nan nan nan nan nan nan nan nan nan nan nan nan nan nan nan nan nan nan nan nan nan nan nan nan nan nan nan nan nan nan nan nan nan nan nan nan nan nan nan nan nan nan nan nan nan nan nan nan nan nan nan nan nan
nan nan nan nan nan nan nan nan nan nan nan nan nan nan nan nan nan nan nan nan nan nan nan nan nan nan nan nan nan nan nan nan nan nan nan nan nan nan nan nan nan nan nan nan nan nan nan nan nan nan nan nan nan nan nan nan nan nan nan nan nan nan nan nan nan nan nan nan nan
nan nan nan nan nan nan nan nan nan nan nan nan nan nan nan nan nan nan nan nan nan nan nan nan nan nan nan nan nan nan nan nan nan nan nan nan nan nan nan nan nan nan nan nan nan nan nan nan nan nan nan nan nan nan nan nan nan nan nan nan nan nan nan nan nan nan nan nan nan
nan nan nan nan nan nan nan nan nan nan nan nan nan nan nan nan nan nan nan nan nan nan nan nan nan nan nan nan nan nan nan nan nan nan nan nan nan nan nan nan nan nan nan nan nan nan nan nan nan nan nan nan nan nan nan nan nan nan nan nan nan nan nan nan nan nan nan nan nan
nan nan nan nan nan nan nan nan nan nan nan nan nan nan nan nan nan nan nan nan nan nan nan nan nan nan nan nan nan nan nan nan nan nan nan nan nan nan nan nan nan nan nan nan nan nan nan nan nan nan nan nan nan nan nan nan nan nan nan nan nan nan nan nan nan nan nan nan nan
nan nan nan nan nan nan nan nan nan nan nan nan nan nan nan nan nan nan nan nan nan nan nan nan nan nan nan nan nan nan nan nan nan nan nan nan nan nan nan nan nan nan nan nan nan nan nan nan nan nan nan nan nan nan nan nan nan nan nan nan nan nan nan nan nan nan nan nan nan
nan nan nan nan nan nan nan nan nan nan nan nan nan nan nan nan nan nan nan nan nan nan nan nan nan nan nan nan nan nan nan nan nan nan nan nan nan nan nan nan nan nan nan nan nan nan nan nan nan nan nan nan nan nan nan nan nan nan nan nan nan nan nan nan nan nan nan nan 0
nan nan nan nan nan nan nan nan nan nan nan nan nan nan nan nan nan nan nan nan nan nan nan nan nan nan nan nan nan nan nan nan nan nan nan nan nan nan nan nan nan nan nan nan nan nan nan nan nan nan nan nan nan nan nan nan nan nan nan nan nan nan nan nan nan nan nan nan 1
nan nan nan nan nan nan nan nan nan nan nan nan nan nan nan nan nan nan nan nan nan nan nan nan nan nan nan nan nan nan nan nan nan nan nan nan nan nan nan nan nan nan nan nan nan nan nan nan nan nan nan nan nan nan nan nan nan nan nan nan nan nan nan nan nan nan nan nan nan
nan nan nan nan nan nan nan nan nan nan nan nan nan nan nan nan nan nan nan nan nan nan nan nan nan nan nan nan nan nan nan nan nan nan nan nan nan nan nan nan nan nan nan nan nan nan nan nan nan nan nan nan nan nan nan nan nan nan nan nan nan nan nan nan nan nan nan nan nan
nan nan nan nan nan nan nan nan nan nan nan nan nan nan nan nan nan nan nan nan nan nan nan nan nan nan nan nan nan nan nan nan nan nan nan nan nan nan nan nan nan nan nan nan nan nan nan nan nan nan nan nan nan nan nan nan nan nan nan nan nan nan nan nan nan nan nan nan nan
nan nan nan nan nan nan nan nan nan nan nan nan nan nan nan nan nan nan nan nan nan nan nan nan nan nan nan nan nan nan nan nan nan nan nan nan nan nan nan nan nan nan nan nan nan nan nan nan nan nan nan nan nan nan nan nan nan nan nan nan nan nan nan nan nan nan nan nan nan
nan nan nan nan nan nan nan nan nan nan nan nan nan nan nan nan nan nan nan nan nan nan nan nan nan nan nan nan nan nan nan nan nan nan nan nan nan nan nan nan nan nan nan nan nan nan nan nan nan nan nan nan nan nan nan nan nan nan nan nan nan nan nan nan nan nan nan nan nan
nan nan nan nan nan nan nan nan nan nan nan nan nan nan nan nan nan nan nan nan nan nan nan nan nan nan nan nan nan nan nan nan nan nan nan nan nan nan nan nan nan nan nan nan nan nan nan nan nan nan nan nan nan nan nan nan nan nan nan nan nan nan nan nan nan nan nan nan nan
nan nan nan nan nan nan nan nan nan nan nan nan nan nan nan nan nan nan nan nan nan nan nan nan nan nan nan nan nan nan nan nan nan nan nan nan nan nan nan nan nan nan nan nan nan nan nan nan nan nan nan nan nan nan nan nan nan nan nan nan nan nan nan nan nan nan nan nan nan
nan nan nan nan nan nan nan nan nan nan nan nan nan nan nan nan nan nan nan nan nan nan nan nan nan nan nan nan nan nan nan nan nan nan nan nan nan nan nan nan nan nan nan nan nan nan nan nan nan nan nan nan nan nan nan nan nan nan nan nan nan nan nan nan nan nan nan nan nan
nan nan nan nan nan nan nan nan nan nan nan nan nan nan nan nan nan nan nan nan nan nan nan nan nan nan nan nan nan nan nan nan nan nan nan nan nan nan nan nan nan nan nan nan nan nan nan nan 0 0 nan nan nan nan nan nan nan nan nan nan nan nan nan nan nan nan nan nan nan
nan nan nan nan nan nan nan nan nan nan nan nan nan nan nan nan nan nan nan nan nan nan nan nan nan nan nan nan nan nan nan nan nan nan nan nan nan nan nan nan nan nan nan nan nan nan nan nan 0 0 0 nan nan nan nan nan nan nan nan nan nan nan nan nan nan nan nan nan nan
nan nan nan nan nan nan nan nan nan nan nan nan nan nan nan nan nan nan nan nan nan nan nan nan nan nan nan nan nan nan nan nan nan nan nan nan nan nan nan nan nan nan nan nan nan nan nan nan 1 1 3 nan nan nan nan nan nan nan nan nan nan nan nan nan nan nan nan nan nan
nan nan nan nan nan nan nan nan nan nan nan nan nan nan nan nan nan nan nan nan nan nan nan nan nan nan nan nan nan nan nan nan nan nan nan nan nan nan nan nan nan nan nan nan nan nan nan nan 1 1 5 7 nan nan nan nan nan nan nan nan nan nan nan nan nan nan nan nan nan
nan nan nan nan nan nan nan nan nan nan nan nan nan nan nan nan nan nan nan nan nan nan nan nan nan nan nan nan nan nan nan nan nan nan nan nan nan nan nan nan nan nan nan nan nan nan nan 0 2 2 5 12 0 nan nan nan nan nan nan nan nan nan nan nan nan nan nan nan nan
nan nan nan nan nan nan nan nan nan nan nan nan nan nan nan nan nan nan nan nan nan nan nan nan nan nan nan nan nan nan nan nan nan nan nan nan nan nan nan nan nan nan nan nan nan nan nan 1 3 3 6 14 2 nan nan nan nan nan nan nan nan nan nan nan nan nan nan nan nan
nan nan nan nan nan nan nan nan nan nan nan nan nan nan nan nan nan nan nan nan nan nan nan nan nan nan nan nan nan nan nan nan nan nan nan nan nan nan nan nan nan nan nan nan nan nan nan 2 4 4 8 17 6 nan nan nan nan nan nan nan nan nan nan nan nan nan nan nan nan
nan nan nan nan nan nan nan nan nan nan nan nan nan nan nan nan nan nan nan nan nan nan nan nan nan nan nan nan nan nan nan nan nan nan nan nan nan nan nan nan nan nan nan nan nan nan 0 2 5 5 10 23 4 nan nan nan nan nan nan nan nan nan nan nan nan nan nan nan nan
nan nan nan nan nan nan nan nan nan nan nan nan nan nan nan nan nan nan nan nan nan nan nan nan nan nan nan nan nan nan nan nan nan nan nan nan nan nan nan nan nan nan nan nan nan nan 1 3 7 7 14 25 2 nan nan nan nan nan nan nan nan nan nan nan nan nan nan nan nan
nan nan nan nan nan nan nan nan nan nan nan nan nan nan nan nan nan nan nan nan nan nan nan nan nan nan nan nan nan nan nan nan nan nan nan nan nan nan nan nan nan nan nan nan nan nan 1 5 10 10 18 21 0 nan nan nan nan nan nan nan nan nan nan nan nan nan nan nan nan
nan nan nan nan nan nan nan nan nan nan nan nan nan nan nan nan nan nan nan nan nan nan nan nan nan nan nan nan nan nan nan nan nan nan nan nan nan nan nan nan nan nan nan nan nan nan 2 7 13 13 24 13 nan nan nan nan nan nan nan nan nan nan nan nan nan nan nan nan nan
nan nan nan nan nan nan nan nan nan nan nan nan nan nan nan nan nan nan nan nan nan nan nan nan nan nan nan nan nan nan nan nan nan nan nan nan nan nan nan nan nan nan nan nan nan nan 2 8 19 19 27 8 nan nan nan nan nan nan nan nan nan nan nan nan nan nan nan nan nan
nan nan nan nan nan nan nan nan nan nan nan nan nan nan nan nan nan nan nan nan nan nan nan nan nan nan nan nan nan nan nan nan nan nan nan nan nan nan nan nan nan nan nan nan 0 0 3 11 24 24 31 6 0 0 0 0 1 1 1 0 nan nan nan nan nan nan nan nan 10
nan nan nan nan nan nan nan nan nan nan nan nan nan nan nan nan nan nan nan nan nan nan nan nan nan nan nan nan nan nan nan nan nan nan nan nan nan nan nan nan nan nan nan nan 0 0 5 15 31 31 42 19 3 3 3 5 3 2 2 1 nan nan nan nan nan nan nan 2 58
nan nan nan nan nan nan nan nan nan nan nan nan nan nan nan nan nan nan nan nan nan nan nan nan nan nan nan nan nan nan nan nan nan nan nan nan nan nan nan nan nan nan nan nan nan nan 6 21 38 38 53 25 4 7 7 13 8 4 4 1 nan nan nan nan 2 2 11 4 60
nan nan nan nan nan nan nan nan nan nan nan nan nan nan nan nan nan nan nan nan nan nan nan nan nan nan nan nan nan nan nan nan nan nan nan nan nan nan nan nan nan nan nan nan nan nan 12 30 46 46 63 20 7 12 12 17 13 6 6 3 1 3 3 8 13 13 9 6 10